Regional Weather Roundup
Issued by NWS

Home | Current Version | Previous Version | Graphics & Text | Print | Product List | Glossary Off
Versions: 1 2 3 4 5 6 7 8 9 10 11 12 13 14 15 16 17 18 19 20 21 22 23 24 25 26 27 28 29 30 31 32 33 34 35 36 37 38 39 40 41 42 43 44 45 46 47 48 49 50

000
ASUS43 KTOP 290359
RWRKS

WEATHER ROUNDUP FOR KANSAS
NATIONAL WEATHER SERVICE GOODLAND KS
1100 PM CDT SAT MAY 28 2016

NOTE:  "FAIR" INDICATES FEW OR NO CLOUDS BELOW 12,000 FEET WITH NO
SIGNIFICANT WEATHER AND/OR OBSTRUCTIONS TO VISIBILITY.

KSZ001>006-013>018-027>032-041>047-290500-
NORTHWEST KANSAS

CITY           SKY/WX    TMP DP  RH WIND       PRES   REMARKS
GOODLAND       CLEAR     64  46  52 S7        30.08R
HAYS           CLEAR     63  52  67 S7        30.03R
HILL CITY      CLEAR     63  54  72 CALM      30.02R
RUSSELL        CLEAR     63  57  81 S9        30.01R
$$

KSZ061>065-074>080-084>089-290500-
SOUTHWEST KANSAS

CITY           SKY/WX    TMP DP  RH WIND       PRES   REMARKS
DODGE CITY     CLEAR     61  54  77 E6        30.05R
ELKHART          N/A     64  46  52 SE6         N/A
GARDEN CITY    CLOUDY    62  49  62 E9        30.05R
GREAT BEND     CLEAR     64  52  63 SE6       30.04R
LIBERAL        CLOUDY    70  46  43 SE10      30.06R
$$

KSZ066>073-081>083-090>101-290500-
SOUTHEAST KANSAS

CITY           SKY/WX    TMP DP  RH WIND       PRES   REMARKS
CHANUTE        CLEAR     66  62  87 S5        30.02R
COFFEYVILLE    CLEAR     68  65  90 S5        30.01R
HUTCHINSON     CLEAR     62  58  86 CALM      30.03R
MEDICINE LODGE   N/A     64  53  67 NE5       30.03R
NEWTON         CLEAR     70  54  56 CALM      30.06R
PARSONS        CLEAR     64  62  93 CALM      30.03R
WICHITA INTL   CLEAR     67  58  72 CALM      30.02R
WICHITA JABRA  CLEAR     66  59  78 CALM      30.02R
WINFIELD       CLEAR     67  60  78 CALM      30.03R
$$

KSZ007>012-019>026-033>040-048>060-102>105-290500-
NORTHEAST KANSAS

CITY           SKY/WX    TMP DP  RH WIND       PRES   REMARKS
CONCORDIA      CLEAR     64  55  72 SW9       30.00R
EMPORIA        CLEAR     64  59  83 SW5       30.02R
LAWRENCE       CLEAR     61  59  93 CALM      30.00R
MANHATTAN      CLEAR     64  58  80 SW3       30.01R
OLATHE IND     CLEAR     67  60  78 SW5       30.02R
OLATHE EXE     CLEAR     67  58  72 CALM      30.02R
SALINA         CLEAR     64  60  87 S7        30.01R
TOPEKA BILLARD CLEAR     65  60  84 CALM      30.00R
TOPEKA FORBES  CLEAR     65  60  84 SW8       30.01R
$$




USA.gov is the U.S. government's official web portal to all federal, state and local government web resources and services.